Погода в Ноглики

Погода в Ноглики : погода сейчас, прогноз погоды и архив. Всё, что Вы хотите узнать о погоде в Ноглики!

Хотите узнать прогноз погоды в Ноглики? Тогда Вам сюда: Погода в Ноглики

Поиск расширенной информации на нашем сайте:

Другие новости

Новости СМИ2

Главная страница сайта

Новости сайта

03.07.2017

Напоминаем, что на нашем специализированном сайте Метеоцентр.Азия вы можете получить высокодетализированные автоматические прогнозы погоды по пунктам России, СНГ и мира в авиационном формате (включающие направление и скорость ветра, видимость, явления погоды, количество и форму облачности, нижнюю и верхнюю границу облачности).

Рекомендуем: подбор тура пегас тур

Погода в Ноглики - сегодня

Время (UTC), дата Ветер
(°,м/с) 
Видим.   Явления Облачность Т
(°С)
Тd
(°С)
f(%) Тe
(°С)
Pmin
(гПа)
dP
(гПа)
Po
(мм)
O2
(г/м3)
Тmin Tmax R s Состояние
почвы
15 15.02.18 240 (ЮЗ) 2-4{04}  10 км    ясно 
-19.5 -22.7 76 -22  1004.7  -0.2  749  327           
18 15.02.18 230 (ЮЗ) 3-4{04}  10 км    ясно 
-20.8 -23.6 78 -25  1005.1  0.4  750  329           
21 15.02.18 240 (ЮЗ) 3-4{05}  10 км    ясно 
-22.4 -24.8 81 -27  1005.1  750  331  -22.4      77  равномерный
сухой снег
100% 
09 16.02.18 270 (З) 2-4{07}  10 км  слаб. ливневой снег  10/4 600 м кучево-дожд., верхняя 
[Cb cap|Ci sp]
-15.2 -18.3 77 -17  1006.1  1.4  751  322    -11.9  0.7     
21 16.02.18 240 (ЮЗ) 3-4{05}  10 км  {ливн. осадки}  3/0 верхняя 
[Ci sp]
-18.8 -20.9 83 -23  1006.2  -0.1  751  326  -19    0.7  77  равномерный
сухой снег
100% 
00 17.02.18 260 (З) 4-7{07}  20000 м  {ливн. осадки}  3/0 верхняя 
[Ci sp]
-15.7 -19.6 72 -21  1006.3  0.2  751  322  -20.6         
09 17.02.18 290 (З) 3-6{10}  4000 м  слаб. ливневой снег  10/10 300 м кучево-дожд. 
[Cb cap]
-14.5 -17.6 77 -18  1008  1.4  752  321    -12.2  0.0     
21 17.02.18 300 (СЗ) 2-5{09}  10 км  {ливн. осадки}  8/4 600 м кучево-дожд., верхняя 
[Cb cap|Ci sp]
-16.6 -20.6 71 -19  1013.4  1.5  756  326  -16.6    81  равномерный
сухой снег
100% 
00 18.02.18 260 (З) 3-5{05}  20000 м  {ливн. осадки}  4/0 верхняя 
[Ci fib]
-14.4 -20.2 61 -18  1014.6  1.3  757  324  -16.9         
09 18.02.18 240 (ЮЗ) 2-2{08}  10 км    8/0 верхняя 
[Ci fib]
-15 -21.6 57 -17  1013.6  0.7  756  324    -10.5       
12 18.02.18 260 (З) 2-4{05}  10 км    ясно 
-16.4 -21.7 64 -19  1013.5  0.1  756  326           
15 18.02.18 230 (ЮЗ) 2-4{04}  10 км    ясно 
-18.5 -23 68 -21  1013  -0.6  756  328           
18 18.02.18 230 (ЮЗ) 3-5{05}  10 км    ясно 
-20.1 -22.9 78 -24  1012.6  -0.4  755  330           
21 18.02.18 230 (ЮЗ) 3-5{06}  10 км    ясно 
-20.8 -22.9 83 -25  1011.7  -0.9  755  331  -20.9      78  равномерный
сухой снег
100% 
09 19.02.18 300 (СЗ) 1-1{06}  10 км    8/1 600 м верхняя 
[Sc|Ci sp]
-15.9 -22.4 57 -16  1009.7  753  324    -9.6       
21 19.02.18 230 (ЮЗ) 2-3{04}  10 км    8/0 верхняя 
[Ci sp]
-24.3 -26.8 80 -27  1008.6  -0.2  752  335  -24.4      77  равномерный
сухой снег
100% 
09 20.02.18 020 (С) 2-3{05}  10 км    6/0 верхняя 
[Ci fib]
-17.2 -23.9 56 -20  1009.3  1.8  753  325    -11.1       
15 20.02.18 240 (ЮЗ) 2-3{03}  10 км    ясно 
-23.3 -26.7 74 -26  1010.4  1.1  754  334           
18 20.02.18 240 (ЮЗ) 2-3{04}  10 км    ясно 
-25 -27.9 77 -28  1010.3  0.1  754  336           
21 20.02.18 220 (ЮЗ) 2-3{03}  10 км    3/0 верхняя 
[Ci fib]
-25.3 -28 78 -29  1010.7  0.3  754  337  -26.3      75  равномерный
сухой снег
100% 
03 21.02.18 300 (СЗ) 3-6{07}  20000 м    ясно 
-13.3 -27.1 30 -17  1010  -0.7  754  321           
12 21.02.18 240 (ЮЗ) 1-2{03}  10 км    ясно 
-22.2 -27.7 61 -23  1013.1  1.3  756  333           
15 21.02.18 230 (ЮЗ) 3-4{04}  10 км    ясно 
-23.5 -27.5 70 -28  1013.1  756  335           
18 21.02.18 220 (ЮЗ) 2-4{04}  10 км    ясно 
-25.2 -27.8 79 -28  1013.2  0.1  756  337           
21 21.02.18 230 (ЮЗ) 3-4{05}  10 км    ясно 
-26.9 -29.5 78 -32  1013.8  0.6  756  340  -27      77  равномерный
сухой снег
100% 
Время (UTC), дата Ветер
(°,м/с) 
Видим.   Явления Облачность Т
(°С)
Тd
(°С)
f(%) Тe
(°С)
Pmin
(гПа)
dP
(гПа)
Po
(мм)
O2
(г/м3)
Тmin Tmax R s Состояние
почвы

Для получения пояснительной информации подведите курсор к названию столбца.

ПОГОДА в Ноглики - архив

Всё, что Вы хотите узнать о погоде в Ноглики - удобно и подробно!

Выберите нужную дату (начиная с 1 января 2015* года) и нажмите кнопку "Найти".
Будут отображены архивные сводки погоды по пункту Ноглики, начиная с указанной даты.


Отображать данные в формате CSV (для использования в таблицах Excel)


Внимание! Наш архив погоды предназначен исключительно для личного некоммерческого использования в познавательных целях. Если Вам необходимы официальные справки о состоянии погоды (для производственных, юридических, коммерческих и т.п. целей), обращайтесь в органы Росгидромета.

*Примечание: данная дата относится к архиву по метеостанциям СССР (Россия, СНГ, Балтия).
Архив по метеостанциям Зарубежной Европы и Азии (кроме Китая) хранится 10 дней, по другим регионам земного шара (Китай, Африка, Америка, Австралия, Океания) - 1 день.

Ноглики - район местоположения метеостанции


Название, широта, долгота, высота метеостанции:
Ноглики 51.9°ш. 143.1°д. 34 м над ур. моря [Российская Федерация]

Дополнительная информация

В oтличие oт бoльшинства пoгoдных сайтoв мы публикуем пoдрoбную метеoинфoрмацию в детальнoм прoфессиoнальнoм фoрмате.

Характеристики температуры и влажнoсти вoздуха измеряются на высoте 2 м в тени вдали oт зданий и деревьев.
Скoрoсть ветра измеряется на высoте 10 м (на урoвне рoста челoвека скoрoсть ветра ниже в 1.5-2 раза). Если метеoстанция нахoдится в гoрoде или в лесу, тo скoрoсть ветра занижена на 2-4 м/с пo сравнению с oткрытым местoм. Скoрoсть ветра над акватoриями крупных рек и oзёр, а также на вершинах хoлмoв на 2-5 м/с выше, чем в oбычных услoвиях.
Атмoсфернoе давление в разных тoчках местнoсти мoжет значительнo oтличаться oт давления на метеoстанции, в зависимoсти oт услoвий рельефа (при пoдъёме на 10 м давление пoнижается примернo на 1 мм рт.ст.).